This is the latest recevied weather packets stored in our database for station/object KBTL-WX. If no packets are shown the sender has not sent any weather packets the latest 10 day(s).
| Time | Temp. | Humidity | Pressure | Rain* | Wind** | Luminosity | Snow |
|---|---|---|---|---|---|---|---|
| 1777161631 | 12.78° C | 77% | 981.9 hPa | 0 mm | - | - | - |
| 1777160713 | 12.78° C | 74% | 980.9 hPa | 0 mm | - | - | - |
| 1777159824 | 12.22° C | 76% | 981.5 hPa | 0 mm | - | - | - |
| 1777158913 | 12.78° C | 76% | 981.5 hPa | 0 mm | - | - | - |
| 1777158027 | 12.78° C | 76% | 981.5 hPa | 0 mm | - | - | - |
| 1777157113 | 12.78° C | 74% | 981.2 hPa | 0 mm | - | - | - |
| 1777156223 | 13.33° C | 80% | 981.4 hPa | 0 mm | - | - | - |
| 1777155313 | 12.78° C | 80% | 981.3 hPa | 0 mm | - | - | - |
| 1777154431 | 12.78° C | 80% | 981.3 hPa | 0 mm | - | - | - |
| 1777153513 | 13.33° C | 76% | 981.7 hPa | 0 mm | - | - | - |
| 1777152628 | 13.33° C | 77% | 981 hPa | 0 mm | - | - | - |
| 1777151714 | 13.33° C | 77% | 981 hPa | 0 mm | - | - | - |
| 1777150833 | 13.89° C | 77% | 981 hPa | 0 mm | - | - | - |
| 1777149913 | 13.33° C | 79% | 980.8 hPa | 0 mm | - | - | - |
| 1777149023 | 13.89° C | 71% | 980.3 hPa | 0 mm | - | - | - |
| 1777148113 | 15° C | 71% | 980.5 hPa | 0 mm | - | - | - |
| 1777147233 | 15° C | 71% | 980.5 hPa | 0 mm | - | - | - |
| 1777146313 | 15° C | 68% | 980 hPa | 0 mm | - | - | - |
| 1777145429 | 15° C | 68% | 980 hPa | 0 mm | - | - | - |
| 1777144513 | 15.56° C | 68% | 980.2 hPa | 0 mm | - | - | - |
| 1777143632 | 15.56° C | 68% | 980.2 hPa | 0 mm | - | - | - |
| 1777142713 | 15.56° C | 73% | 980.7 hPa | 0 mm | - | - | - |
| 1777141830 | 15° C | 67% | 980.7 hPa | 0 mm | - | - | - |
| 1777140912 | 14.44° C | 67% | 980.7 hPa | 0 mm | - | - | - |
| 1777140034 | 14.44° C | 67% | 980.7 hPa | 0 mm | - | - | - |
* Rain latest hour (hover to see other rain measurements)
** Current wind speed in m/s (hover to see current wind gust speed)